When you browse on this site, cookies collect data to enhance your experience and personalize the content and advertising you see.
Visit our Privacy Policy to learn more. By continuing to use the site, you agree to this use of cookies and data.
  • In Austria
  • List of Countries
  • For 7 days
  • Water Temperature
  • Satellite Maps
  • Weather Map
  • News
  • Weather Widgets
  • user-avatar
    Login

    Hourly Weather Bragansa

    Today, 24 March, Sunday

    Time Temperature Precipitation Wind Pressure Humidity
    00:00 +13°C° 0 mm 4 mps 717 mmHg 44%
    01:00 +11°C° 0 mm 3 mps 717 mmHg 49%
    02:00 +10°C° 0 mm 3 mps 717 mmHg 53%
    03:00 +9°C° 0 mm 2 mps 717 mmHg 57%
    04:00 +9°C° 0 mm 2 mps 717 mmHg 60%
    05:00 +8°C° 0 mm 2 mps 717 mmHg 62%
    06:00 +8°C° 0 mm 2 mps 717 mmHg 66%
    07:00 +9°C° 0 mm 3 mps 718 mmHg 62%
    08:00 +11°C° 0 mm 3 mps 718 mmHg 58%
    09:00 +13°C° 0 mm 3 mps 718 mmHg 54%
    10:00 +15°C° 0 mm 4 mps 718 mmHg 48%
    11:00 +18°C° 0 mm 4 mps 718 mmHg 42%
    12:00 +20°C° 0 mm 5 mps 718 mmHg 37%
    13:00 +21°C° 0 mm 4 mps 718 mmHg 34%
    14:00 +21°C° 0 mm 4 mps 718 mmHg 32%
    15:00 +22°C° 0 mm 4 mps 717 mmHg 30%
    16:00 +21°C° 0 mm 4 mps 717 mmHg 33%
    17:00 +19°C° 0 mm 3 mps 717 mmHg 37%
    18:00 +18°C° 0 mm 2 mps 717 mmHg 41%
    19:00 +17°C° 0 mm 2 mps 717 mmHg 42%
    20:00 +14°C° 0 mm 3 mps 717 mmHg 43%
    21:00 +12°C° 0 mm 3 mps 717 mmHg 44%
    22:00 +12°C° 0 mm 3 mps 717 mmHg 49%
    23:00 +11°C° 0 mm 4 mps 717 mmHg 54%

    Tomorrow, 25 March, Monday

    Time Temperature Precipitation Wind Pressure Humidity
    00:00 +10°C° 0 mm 4 mps 717 mmHg 59%
    01:00 +10°C° 0 mm 4 mps 717 mmHg 61%
    02:00 +8°C° 0 mm 4 mps 717 mmHg 63%
    03:00 +8°C° 0 mm 4 mps 717 mmHg 65%
    04:00 +8°C° 0 mm 3 mps 717 mmHg 66%
    05:00 +8°C° 0 mm 3 mps 717 mmHg 67%
    06:00 +7°C° 0 mm 3 mps 717 mmHg 67%
    07:00 +9°C° 0 mm 3 mps 717 mmHg 62%
    08:00 +11°C° 0 mm 4 mps 717 mmHg 57%
    09:00 +12°C° 0 mm 4 mps 717 mmHg 51%
    10:00 +14°C° 0 mm 4 mps 717 mmHg 47%
    11:00 +16°C° 0 mm 5 mps 717 mmHg 42%
    12:00 +19°C° 0 mm 5 mps 717 mmHg 38%
    13:00 +19°C° 0 mm 5 mps 717 mmHg 36%
    14:00 +19°C° 0 mm 5 mps 716 mmHg 35%
    15:00 +20°C° 0 mm 6 mps 716 mmHg 34%
    16:00 +19°C° 0 mm 5 mps 715 mmHg 37%
    17:00 +16°C° 0 mm 5 mps 715 mmHg 39%
    18:00 +15°C° 0 mm 5 mps 715 mmHg 42%
    19:00 +13°C° 0 mm 5 mps 715 mmHg 44%
    20:00 +11°C° 0 mm 6 mps 716 mmHg 47%
    21:00 +9°C° 0 mm 6 mps 716 mmHg 50%
    22:00 +8°C° 0 mm 6 mps 716 mmHg 50%
    23:00 +7°C° 0 mm 6 mps 716 mmHg 51%

    Day after tomorrow, 26 March, Tuesday

    Time Temperature Precipitation Wind Pressure Humidity
    00:00 +5°C° 0 mm 6 mps 717 mmHg 51%
    01:00 +5°C° 0 mm 6 mps 716 mmHg 55%
    02:00 +4°C° 0 mm 6 mps 716 mmHg 60%
    03:00 +3°C° 0 mm 6 mps 716 mmHg 64%
    04:00 +3°C° 0 mm 6 mps 716 mmHg 66%
    05:00 +3°C° 0 mm 6 mps 716 mmHg 69%
    06:00 +3°C° 0 mm 5 mps 716 mmHg 71%
    07:00 +5°C° 0 mm 6 mps 716 mmHg 63%
    08:00 +6°C° 0 mm 8 mps 716 mmHg 56%
    09:00 +8°C° 0 mm 9 mps 716 mmHg 48%
    10:00 +10°C° 0 mm 9 mps 715 mmHg 40%
    11:00 +12°C° 0 mm 10 mps 715 mmHg 33%
    12:00 +14°C° 0 mm 10 mps 715 mmHg 25%
    13:00 +16°C° 0 mm 10 mps 714 mmHg 25%
    14:00 +17°C° 0 mm 9 mps 714 mmHg 25%
    15:00 +18°C° 0 mm 9 mps 714 mmHg 25%
    16:00 +17°C° 0 mm 9 mps 714 mmHg 27%
    17:00 +15°C° 0 mm 9 mps 714 mmHg 28%
    18:00 +13°C° 0 mm 8 mps 713 mmHg 30%
    19:00 +11°C° 0 mm 8 mps 714 mmHg 31%
    20:00 +10°C° 0 mm 8 mps 715 mmHg 31%
    21:00 +7°C° 0 mm 8 mps 715 mmHg 32%
    22:00 +6°C° 0 mm 8 mps 716 mmHg 35%
    23:00 +6°C° 0 mm 8 mps 716 mmHg 38%

    27 March, Wednesday

    Time Temperature Precipitation Wind Pressure Humidity
    00:00 +5°C° 0 mm 8 mps 716 mmHg 42%
    01:00 +4°C° 0 mm 7 mps 716 mmHg 45%
    02:00 +4°C° 0 mm 7 mps 716 mmHg 49%
    03:00 +4°C° 0 mm 6 mps 716 mmHg 53%
    04:00 +3°C° 0 mm 6 mps 717 mmHg 55%
    05:00 +3°C° 0 mm 6 mps 717 mmHg 56%
    06:00 +3°C° 0 mm 5 mps 717 mmHg 58%
    07:00 +5°C° 0 mm 5 mps 717 mmHg 53%
    08:00 +7°C° 0 mm 6 mps 717 mmHg 49%
    09:00 +8°C° 0 mm 6 mps 718 mmHg 44%
    10:00 +10°C° 0 mm 6 mps 718 mmHg 39%
    11:00 +13°C° 0 mm 6 mps 718 mmHg 35%
    12:00 +15°C° 0 mm 6 mps 718 mmHg 30%
    13:00 +16°C° 0 mm 6 mps 717 mmHg 29%
    14:00 +17°C° 0 mm 6 mps 717 mmHg 27%
    15:00 +19°C° 0 mm 6 mps 717 mmHg 26%
    16:00 +17°C° 0 mm 5 mps 717 mmHg 30%
    17:00 +17°C° 0 mm 4 mps 717 mmHg 33%
    18:00 +15°C° 0 mm 4 mps 716 mmHg 37%
    19:00 +13°C° 0 mm 4 mps 717 mmHg 40%
    20:00 +11°C° 0 mm 4 mps 718 mmHg 43%
    21:00 +10°C° 0 mm 4 mps 718 mmHg 46%
    22:00 +8°C° 0 mm 4 mps 718 mmHg 47%
    23:00 +7°C° 0 mm 4 mps 718 mmHg 47%

    28 March, Thursday

    Time Temperature Precipitation Wind Pressure Humidity
    00:00 +6°C° 0 mm 4 mps 719 mmHg 47%
    01:00 +5°C° 0 mm 4 mps 719 mmHg 50%
    02:00 +5°C° 0 mm 4 mps 719 mmHg 53%
    03:00 +4°C° 0 mm 4 mps 719 mmHg 56%
    04:00 +4°C° 0 mm 3 mps 719 mmHg 61%
    05:00 +4°C° 0 mm 3 mps 719 mmHg 65%
    06:00 +4°C° 0 mm 2 mps 719 mmHg 70%
    07:00 +5°C° 0 mm 3 mps 719 mmHg 65%
    08:00 +8°C° 0 mm 3 mps 719 mmHg 60%
    09:00 +10°C° 0 mm 4 mps 720 mmHg 56%
    10:00 +12°C° 0 mm 4 mps 720 mmHg 50%
    11:00 +14°C° 0 mm 4 mps 719 mmHg 44%
    12:00 +16°C° 0 mm 5 mps 719 mmHg 39%
    13:00 +17°C° 0 mm 5 mps 719 mmHg 37%
    14:00 +19°C° 0 mm 5 mps 718 mmHg 35%
    15:00 +19°C° 0 mm 4 mps 718 mmHg 33%
    16:00 +18°C° 0 mm 4 mps 718 mmHg 37%
    17:00 +18°C° 0 mm 3 mps 717 mmHg 41%
    18:00 +17°C° 0 mm 3 mps 717 mmHg 44%
    19:00 +14°C° 0 mm 3 mps 718 mmHg 48%
    20:00 +12°C° 0 mm 3 mps 718 mmHg 53%
    21:00 +10°C° 0 mm 3 mps 718 mmHg 57%
    22:00 +9°C° 0 mm 3 mps 718 mmHg 62%
    23:00 +9°C° 0 mm 3 mps 719 mmHg 66%

    29 March, Friday

    Time Temperature Precipitation Wind Pressure Humidity
    00:00 +8°C° 0 mm 3 mps 719 mmHg 71%
    01:00 +7°C° 0 mm 3 mps 719 mmHg 72%
    02:00 +7°C° 0 mm 2 mps 719 mmHg 74%
    03:00 +6°C° 0 mm 2 mps 719 mmHg 75%
    04:00 +6°C° 0 mm 2 mps 719 mmHg 75%
    05:00 +5°C° 0 mm 2 mps 719 mmHg 75%
    06:00 +6°C° 0 mm 1 mps 719 mmHg 76%
    07:00 +7°C° 0 mm 2 mps 719 mmHg 69%
    08:00 +9°C° 0 mm 2 mps 719 mmHg 62%
    09:00 +10°C° 0 mm 2 mps 720 mmHg 54%
    10:00 +14°C° 0 mm 2 mps 720 mmHg 49%
    11:00 +16°C° 0 mm 2 mps 720 mmHg 43%
    12:00 +18°C° 0 mm 3 mps 720 mmHg 38%
    13:00 +19°C° 0 mm 2 mps 719 mmHg 35%
    14:00 +19°C° 0 mm 2 mps 719 mmHg 33%
    15:00 +20°C° 0 mm 2 mps 718 mmHg 30%
    16:00 +19°C° 0 mm 2 mps 718 mmHg 34%
    17:00 +18°C° 0 mm 2 mps 718 mmHg 38%
    18:00 +18°C° 0 mm 2 mps 718 mmHg 42%
    19:00 +16°C° 0 mm 2 mps 718 mmHg 44%
    20:00 +14°C° 0 mm 2 mps 718 mmHg 46%
    21:00 +12°C° 0 mm 2 mps 719 mmHg 49%
    22:00 +10°C° 0 mm 2 mps 719 mmHg 50%
    23:00 +10°C° 0 mm 2 mps 719 mmHg 52%
    Show more